This is the latest recevied weather packets stored in our database for station/object DG7FDL-7. If no packets are shown the sender has not sent any weather packets the latest 10 day(s).
| Time | Temp. | Humidity | Pressure | Rain* | Wind** | Luminosity | Snow |
|---|---|---|---|---|---|---|---|
| 1777880254 | 23.33° C | 37% | 1015.4 hPa | - | - | - | - |
| 1777879344 | 22.78° C | 38% | 1015.4 hPa | - | - | - | - |
| 1777878444 | 23.33° C | 37% | 1015.3 hPa | - | - | - | - |
| 1777877544 | 23.33° C | 37% | 1015.3 hPa | - | - | - | - |
| 1777876644 | 23.33° C | 37% | 1015.2 hPa | - | - | - | - |
| 1777875744 | 23.33° C | 37% | 1015.1 hPa | - | - | - | - |
| 1777874844 | 23.33° C | 36% | 1015.1 hPa | - | - | - | - |
| 1777873954 | 23.33° C | 36% | 1015.1 hPa | - | - | - | - |
| 1777873044 | 23.33° C | 36% | 1015.1 hPa | - | - | - | - |
| 1777872144 | 23.33° C | 36% | 1015 hPa | - | - | - | - |
| 1777871244 | 23.89° C | 36% | 1015 hPa | - | - | - | - |
| 1777870345 | 23.89° C | 36% | 1014.9 hPa | - | - | - | - |
| 1777869443 | 23.89° C | 36% | 1014.9 hPa | - | - | - | - |
| 1777868543 | 23.89° C | 36% | 1014.8 hPa | - | - | - | - |
| 1777867643 | 23.89° C | 36% | 1015 hPa | - | - | - | - |
| 1777866744 | 23.89° C | 36% | 1014.7 hPa | - | - | - | - |
| 1777865843 | 23.89° C | 37% | 1014.6 hPa | - | - | - | - |
| 1777864943 | 24.44° C | 36% | 1014.8 hPa | - | - | - | - |
| 1777864054 | 25° C | 36% | 1014.7 hPa | - | - | - | - |
| 1777863143 | 24.44° C | 37% | 1014.6 hPa | - | - | - | - |
| 1777862243 | 25° C | 38% | 1014.6 hPa | - | - | - | - |
| 1777861343 | 24.44° C | 37% | 1014.6 hPa | - | - | - | - |
| 1777860443 | 24.44° C | 38% | 1014.5 hPa | - | - | - | - |
| 1777859546 | 25° C | 37% | 1014.5 hPa | - | - | - | - |
| 1777858646 | 24.44° C | 37% | 1014.8 hPa | - | - | - | - |
* Rain since midnight (hover to see other rain measurements)
** Current wind speed in m/s (hover to see current wind gust speed)